Danville, IN

3:42 PM EST on February 19, 2018 (GMT -0500)
Vermilion County

Weather History for KDNV - July, 2013

Change the Weather History Date:

Friday, July 19, 2013

  Actual Average (KLAF) Record (KLAF)
Temperature  
Mean Temperature 86 °F -  
Max Temperature 96 °F 88 °F 101 °F (1980)
Min Temperature 75 °F 66 °F 51 °F (1979)
Cooling Degree Days 20    
Growing Degree Days 36 (Base 50)    
Moisture  
Dew Point 73 °F    
Average Humidity 66    
Maximum Humidity 88    
Minimum Humidity 48    
Precipitation  
Precipitation 0.00 in - - ()
Sea Level Pressure  
Sea Level Pressure 29.92 in    
Wind  
Wind Speed 8 mph (SW)    
Max Wind Speed 14 mph    
Max Gust Speed 21 mph    
Visibility 6 miles    
Events      
Averages and records for this station are not official NWS values.
T = Trace of Precipitation, MM = Missing Value Source: NWS Daily Summary

Daily Weather History Graph

Daily Weather History Graph

Search for Another Location

Airport or City:

Trip Planner

Search our weather history database for the weather conditions in past years. The results will help you decide how hot, cold, wet, or windy it might be!

Date:

Astronomy

Jul. 19, 2013 Rise Set
Actual Time 5:37 AM CDT 8:15 PM CDT
Civil Twilight 5:05 AM CDT 8:47 PM CDT
Nautical Twilight 4:25 AM CDT 9:26 PM CDT
Astronomical Twilight 3:41 AM CDT 10:11 PM CDT
Moon 5:18 PM CDT 2:17 AM CDT
Length of Visible Light 15h 42m
Length of Day
14h 38m
Waxing Gibbous, 87% of the Moon is Illuminated
Jul 19
Waxing Gibbous
Jul 22
Full
Jul 29
Last Quarter
Aug 6
New
Aug 14
First Quarter

Hourly Weather History & Observations

Time (CDT) Temp. Heat Index Dew Point Humidity Pressure Visibility Wind Dir Wind Speed Gust Speed Precip Events Conditions
12:15 AM 76.3 °F - 70.5 °F 82% 30.00 in 7.0 mi SSW 3.5 mph - N/A   Clear
12:35 AM 76.1 °F - 70.7 °F 83% 30.00 in 7.0 mi SSW 5.8 mph - N/A   Clear
12:55 AM 76.3 °F - 70.9 °F 83% 30.00 in 7.0 mi SSW 5.8 mph - N/A   Clear
1:35 AM 76.3 °F - 71.2 °F 84% 29.99 in 7.0 mi SSW 3.5 mph - N/A   Clear
2:55 AM 75.0 °F - 70.5 °F 86% 29.97 in 7.0 mi SW 5.8 mph - N/A   Clear
3:15 AM 75.9 °F - 71.4 °F 86% 29.97 in 7.0 mi SW 5.8 mph - N/A   Clear
4:15 AM 75.9 °F - 71.4 °F 86% 29.96 in 7.0 mi SSW 4.6 mph - N/A   Clear
4:55 AM 75.4 °F - 71.6 °F 88% 29.96 in 5.0 mi SSW 5.8 mph - N/A   Clear
5:35 AM 75.7 °F - 72.0 °F 88% 29.96 in 4.0 mi SW 5.8 mph - N/A   Clear
6:15 AM 76.5 °F - 72.7 °F 88% 29.96 in 4.0 mi SW 5.8 mph - N/A   Clear
6:55 AM 79.2 °F - 73.8 °F 83% 29.97 in 5.0 mi SW 5.8 mph - N/A   Haze
7:15 AM 80.6 °F 85.5 °F 73.8 °F 80% 29.98 in 5.0 mi SW 5.8 mph - N/A   Haze
7:35 AM 81.9 °F 87.7 °F 74.1 °F 77% 29.98 in 5.0 mi SW 6.9 mph - N/A   Haze
7:55 AM 83.5 °F 90.6 °F 74.3 °F 74% 29.98 in 5.0 mi SW 9.2 mph - N/A   Haze
8:15 AM 84.9 °F 92.5 °F 74.3 °F 70% 29.98 in 5.0 mi SW 6.9 mph - N/A   Haze
8:35 AM 85.6 °F 93.0 °F 73.8 °F 67% 29.98 in 5.0 mi WSW 8.1 mph - N/A   Haze
8:55 AM 86.9 °F 95.4 °F 74.3 °F 66% 29.98 in 5.0 mi WSW 10.4 mph - N/A   Haze
9:15 AM 87.8 °F 96.6 °F 74.3 °F 64% 29.99 in 5.0 mi WSW 9.2 mph - N/A   Haze
9:35 AM 88.7 °F 98.2 °F 74.7 °F 63% 29.98 in 5.0 mi WSW 9.2 mph 16.1 mph N/A   Haze
9:55 AM 89.8 °F 100.3 °F 75.0 °F 62% 29.98 in 7.0 mi SW 8.1 mph - N/A   Clear
10:15 AM 91.0 °F 102.2 °F 75.4 °F 60% 29.97 in 5.0 mi SW 9.2 mph - N/A   Haze
10:35 AM 91.4 °F 102.5 °F 75.2 °F 59% 29.97 in 5.0 mi SW 13.8 mph 18.4 mph N/A   Haze
10:55 AM 92.5 °F 103.9 °F 75.4 °F 57% 29.97 in 5.0 mi SW 10.4 mph - N/A   Haze
11:15 AM 93.6 °F 105.9 °F 75.7 °F 56% 29.97 in 7.0 mi SW 8.1 mph - N/A   Clear
11:55 AM 94.3 °F 104.9 °F 74.3 °F 52% 29.95 in 7.0 mi WSW 10.4 mph 17.3 mph N/A   Clear
12:35 PM 95.2 °F 105.6 °F 73.6 °F 50% 29.94 in 7.0 mi SSW 12.7 mph 19.6 mph N/A   Clear
12:55 PM 95.5 °F 106.5 °F 74.5 °F 50% 29.93 in 7.0 mi SSW 11.5 mph 16.1 mph N/A   Clear
1:35 PM 95.5 °F 107.3 °F 74.7 °F 51% 29.92 in 7.0 mi SW 10.4 mph - N/A   Clear
2:15 PM 96.3 °F 106.8 °F 73.8 °F 48% 29.90 in 7.0 mi SW 10.4 mph 17.3 mph N/A   Clear
2:35 PM 95.9 °F 106.6 °F 73.9 °F 49% 29.89 in 7.0 mi SSW 13.8 mph 19.6 mph N/A   Clear
2:55 PM 96.1 °F 107.1 °F 73.9 °F 49% 29.88 in 7.0 mi SW 11.5 mph 19.6 mph N/A   Clear
3:15 PM 95.9 °F 105.9 °F 73.4 °F 48% 29.88 in 7.0 mi SW 12.7 mph 20.7 mph N/A   Clear
3:35 PM 95.4 °F 104.7 °F 72.7 °F 48% 29.87 in 5.0 mi SW 12.7 mph 20.7 mph N/A   Haze
3:55 PM 95.0 °F 103.8 °F 72.5 °F 48% 29.87 in 7.0 mi SSW 13.8 mph 18.4 mph N/A   Clear
4:15 PM 94.3 °F 103.5 °F 73.2 °F 50% 29.86 in 5.0 mi SW 13.8 mph 19.6 mph N/A   Haze
4:35 PM 95.2 °F 104.2 °F 72.9 °F 48% 29.85 in 7.0 mi WSW 10.4 mph 19.6 mph N/A   Clear
4:55 PM 94.3 °F 102.2 °F 72.0 °F 48% 29.85 in 7.0 mi SW 12.7 mph 17.3 mph N/A   Clear
5:15 PM 94.1 °F 103.8 °F 73.2 °F 51% 29.85 in 5.0 mi SSW 8.1 mph 17.3 mph N/A   Haze
6:15 PM 92.8 °F 101.5 °F 72.9 °F 52% 29.84 in 7.0 mi SSW 11.5 mph - N/A   Clear
6:35 PM 91.8 °F 99.7 °F 72.7 °F 53% 29.84 in 7.0 mi SW 10.4 mph - N/A   Clear
6:55 PM 91.0 °F 99.3 °F 72.7 °F 55% 29.84 in 7.0 mi SW 8.1 mph - N/A   Clear
7:15 PM 89.6 °F 98.2 °F 73.4 °F 59% 29.85 in 7.0 mi SSW 9.2 mph 16.1 mph N/A   Clear
7:35 PM 87.1 °F 94.9 °F 73.4 °F 64% 29.85 in 7.0 mi SSW 5.8 mph - N/A   Clear
7:55 PM 86.0 °F 93.4 °F 73.4 °F 66% 29.84 in 7.0 mi SSW 8.1 mph - N/A   Clear
8:15 PM 84.9 °F 91.4 °F 72.7 °F 67% 29.84 in 7.0 mi SSW 6.9 mph - N/A   Clear
8:35 PM 84.2 °F 90.3 °F 72.7 °F 68% 29.84 in 7.0 mi SSW 9.2 mph - N/A   Clear
9:15 PM 83.3 °F 89.0 °F 72.5 °F 70% 29.85 in 7.0 mi SSW 8.1 mph - N/A   Clear
9:55 PM 82.9 °F 88.5 °F 72.7 °F 71% 29.86 in 7.0 mi SSW 10.4 mph - N/A   Clear
10:15 PM 82.4 °F 87.7 °F 72.5 °F 72% 29.86 in 7.0 mi SW 9.2 mph - N/A   Clear
10:35 PM 81.9 °F 86.8 °F 72.5 °F 73% 29.87 in 7.0 mi SW 8.1 mph 16.1 mph N/A   Clear
10:55 PM 81.5 °F 86.1 °F 72.1 °F 73% 29.87 in 7.0 mi SSW 9.2 mph - N/A   Clear
11:35 PM 80.8 °F 85.1 °F 72.1 °F 75% 29.86 in 7.0 mi SW 9.2 mph 16.1 mph N/A   Clear
11:55 PM 80.8 °F 84.9 °F 72.0 °F 74% 29.86 in 7.0 mi SSW 8.1 mph 17.3 mph N/A   Clear